Weather History for KMCW - October, 2012

Change the Weather History Date:

Thursday, October 4, 2012

  Actual Average Record
Temperature  
Mean Temperature 48 °F 53 °F  
Max Temperature 59 °F 65 °F 87 °F (2005)
Min Temperature 36 °F 40 °F 20 °F (1935)
Degree Days  
Heating Degree Days 17 13  
Month to date heating degree days 38 48  
Since 1 July heating degree days 230 261  
Cooling Degree Days 0 0  
Month to date cooling degree days 0 2  
Year to date cooling degree days 899 612  
Moisture  
Dew Point 33 °F    
Average Humidity 53    
Maximum Humidity 71    
Minimum Humidity 35    
Precipitation  
Precipitation 0.00 in 0.09 in 1.42 in (2002)
Month to date precipitation 0.00 0.40  
Year to date precipitation 16.16 30.03  
Snow  
Snow 0.00 in 0.00 in 0.00 in (2002)
Month to date snowfall 0.0 0.0  
Since 1 July snowfall 0.0 0.0  
Since 1 September snowfall 0.0 0.0  
Snow Depth 0.00 in    
Sea Level Pressure  
Sea Level Pressure 30.09 in    
Wind  
Wind Speed 18 mph (WNW)    
Max Wind Speed 30 mph    
Max Gust Speed 39 mph    
Visibility 10 miles    
Events      
T = Trace of Precipitation, MM = Missing Value Source: NWS Daily Summary

Daily Weather History Graph

Daily Weather History Graph

Search for Another Location

Airport or City:

Trip Planner

Search our weather history database for the weather conditions in past years. The results will help you decide how hot, cold, wet, or windy it might be!

Date:

Astronomy

Oct. 04, 2012 Rise Set
Actual Time 7:14 AM CDT 6:48 PM CDT
Civil Twilight 6:46 AM CDT 7:16 PM CDT
Nautical Twilight 6:13 AM CDT 7:49 PM CDT
Astronomical Twilight 5:40 AM CDT 8:22 PM CDT
Moon 9:17 PM CDT (10/4) 11:39 AM CDT (10/4)
Length of Visible Light 12h 30m
Length of Day
11h 33m
Waning Gibbous, 82% of the Moon is Illuminated
Oct 4
Waning Gibbous
Oct 8
Last Quarter
Oct 15
New
Oct 21
First Quarter
Oct 29
Full

Hourly Weather History & Observations

Time (CDT) Temp. Windchill Dew Point Humidity Pressure Visibility Wind Dir Wind Speed Gust Speed Precip Events Conditions
12:53 AM 52.0 °F - 41.0 °F 66% 29.89 in 9.0 mi South 9.2 mph - N/A   Clear
1:53 AM 53.1 °F - 39.9 °F 61% 29.88 in 10.0 mi South 9.2 mph - N/A   Clear
2:53 AM 57.9 °F - 41.0 °F 53% 29.88 in 10.0 mi SSW 12.7 mph - N/A   Clear
3:53 AM 53.1 °F - 37.9 °F 57% 29.91 in 9.0 mi West 17.3 mph - N/A   Clear
4:53 AM 48.9 °F - 39.0 °F 69% 29.94 in 10.0 mi West 16.1 mph - N/A   Clear
5:53 AM 48.0 °F - 37.9 °F 68% 29.98 in 9.0 mi West 16.1 mph 25.3 mph N/A   Clear
6:53 AM 46.9 °F - 37.0 °F 68% 30.00 in 10.0 mi West 27.6 mph 35.7 mph N/A   Partly Cloudy
7:53 AM 46.9 °F - 37.0 °F 68% 30.03 in 10.0 mi West 17.3 mph 26.5 mph N/A   Clear
8:53 AM 46.9 °F - 35.1 °F 63% 30.04 in 10.0 mi WNW 20.7 mph 31.1 mph N/A   Partly Cloudy
9:53 AM 48.0 °F - 33.1 °F 56% 30.06 in 10.0 mi WNW 26.5 mph 34.5 mph N/A   Mostly Cloudy
10:53 AM 50.0 °F - 33.1 °F 52% 30.10 in 10.0 mi WNW 25.3 mph 33.4 mph N/A   Clear
11:53 AM 52.0 °F - 32.0 °F 47% 30.11 in 10.0 mi WNW 28.8 mph 33.4 mph N/A   Clear
12:53 PM 53.1 °F - 30.9 °F 43% 30.13 in 10.0 mi WNW 26.5 mph 33.4 mph N/A   Partly Cloudy
1:53 PM 54.0 °F - 30.0 °F 40% 30.13 in 10.0 mi West 25.3 mph 31.1 mph N/A   Clear
2:53 PM 54.0 °F - 30.0 °F 40% 30.14 in 10.0 mi WNW 24.2 mph 31.1 mph N/A   Partly Cloudy
3:53 PM 55.0 °F - 28.9 °F 37% 30.15 in 10.0 mi NW 23.0 mph 31.1 mph N/A   Clear
4:53 PM 52.0 °F - 28.9 °F 41% 30.17 in 10.0 mi WNW 20.7 mph 26.5 mph N/A   Scattered Clouds
5:53 PM 50.0 °F - 28.0 °F 43% 30.18 in 10.0 mi NW 19.6 mph - N/A   Clear
6:53 PM 46.9 °F - 28.0 °F 48% 30.20 in 10.0 mi NW 16.1 mph - N/A   Partly Cloudy
7:53 PM 43.0 °F 37.2 °F 28.0 °F 56% 30.22 in 10.0 mi NW 10.4 mph - N/A   Clear
8:53 PM 42.1 °F 35.7 °F 27.0 °F 55% 30.22 in 10.0 mi NW 11.5 mph - N/A   Clear
9:53 PM 42.1 °F 35.2 °F 27.0 °F 55% 30.22 in 10.0 mi NW 12.7 mph - N/A   Clear
10:53 PM 39.0 °F 32.8 °F 27.0 °F 62% 30.24 in 10.0 mi WNW 9.2 mph - N/A   Clear
11:53 PM 37.0 °F 30.4 °F 26.1 °F 65% 30.24 in 10.0 mi WNW 9.2 mph - N/A   Mostly Cloudy